This demonstration page uses our WeatherBlox Daily Observations layout. Learn more.

41.55636, -103.73856

Hourly Observations for April 15, 2015

Temp ( °F °C ) Dew Point ( °F °C ) Humidity (%) Winds ( mph kmh ) Pressure ( in mb ) Visibility ( mi km ) Precip ( " mm )
12:53 am 00:53 Clear 53 11.7 29 -1.7 40 40 SSE 18 30 29.64 1004 10 16.0934 0 0
1:53 am 01:53 Clear 49 9.4 31 -0.6 50 50 ESE 20 31 29.63 1003 10 16.0934 0 0
2:53 am 02:53 Clear 50 10 32 0 50 50 SE 28 44 29.59 1002 10 16.0934 0 0
3:53 am 03:53 Clear 49 9.4 33 0.6 55 55 ESE 13 20 29.61 1003 10 16.0934 0 0
4:53 am 04:53 Clear 47 8.3 34 1.1 61 61 SE 9 15 29.62 1003 10 16.0934 0 0
5:53 am 05:53 Clear 45 7.2 34 1.1 66 66 SE 10 17 29.65 1004 10 16.0934 0 0
6:53 am 06:53 Sunny 43 6.1 34 1.1 71 71 ESE 8 13 29.69 1005 10 16.0934 0 0
7:53 am 07:53 Sunny 48 8.9 36 2.2 63 63 SE 14 22 29.69 1006 10 16.0934 0 0
8:53 am 08:53 Sunny 50 10 37 2.8 61 61 SE 13 20 29.7 1006 10 16.0934 0 0
9:53 am 09:53 Sunny 51 10.6 38 3.3 61 61 SE 7 11 29.71 1006 10 16.0934 0 0
10:53 am 10:53 Sunny 54 12.2 39 3.9 57 57 VRB 3 6 29.72 1006 10 16.0934 0 0
11:53 am 11:53 Cloudy 56 13.3 39 3.9 53 53 NE 9 15 29.71 1006 10 16.0934 0 0
12:53 pm 12:53 Cloudy 55 12.8 40 4.4 57 57 NE 7 11 29.72 1006 10 16.0934 0 0
1:53 pm 13:53 Cloudy 57 13.9 40 4.4 53 53 ESE 9 15 29.71 1006 10 16.0934 0 0
2:53 pm 14:53 Cloudy 58 14.4 40 4.4 51 51 E 8 13 29.7 1006 10 16.0934 0 0
3:53 pm 15:53 Mostly Cloudy 61 16.1 40 4.4 46 46 SSW 3 6 29.72 1006 10 16.0934 0 0
4:31 pm 16:31 Cloudy with Light Rain 49 9.4 39 3.9 69 69 WNW 20 31 29.77 1008 9 14.48406 0 0.0254
4:53 pm 16:53 Mostly Cloudy with Light Rain 49 9.4 40 4.4 71 71 W 25 41 29.76 1008 10 16.0934 0 0.0254
5:53 pm 17:53 Mostly Cloudy 45 7.2 37 2.8 74 74 W 28 44 29.82 1010 10 16.0934 0 0.0254
6:19 pm 18:19 Windy with Storms Likely 44 6.7 36 2.2 73 73 W 26 43 29.94 1014 10 16.0934 0 0.0254
6:33 pm 18:33 Cloudy with Heavy Rain 40 4.4 39 3.9 97 97 WNW 29 46 29.97 1015 2 3.21868 0.04 1.016
6:40 pm 18:40 Cloudy with Rain 39 4 39 4 100 100 NW 33 54 29.91 1013 1.5 2.41401 0 0
6:49 pm 18:49 Cloudy with Light Rain 41 5 N/A N/A NW 31 50 29.88 1012 2.5 4.02335 0.11 2.794
6:53 pm 18:53 Cloudy with Light Rain 41 5 N/A N/A NW 24 39 29.87 1011 3 4.82802 0.11 2.794
7:06 pm 19:06 Mostly Cloudy with Light Rain 41 5 N/A N/A NNW 28 44 29.85 1011 8 12.87472 0 0
7:13 pm 19:13 Mostly Cloudy with Light Rain 43 6 N/A N/A NNW 26 43 29.88 1012 10 16.0934 0.01 0.254
7:48 pm 19:48 Windy with Storms Likely 41 5 N/A N/A WNW 23 37 29.97 1015 10 16.0934 0 0
7:53 pm 19:53 Windy with Storms Likely 39 4 N/A N/A WNW 22 35 29.92 1013 10 16.0934 0.01 0.254
8:03 pm 20:03 Cloudy with Rain 39 4 N/A N/A WNW 23 37 29.97 1015 7 11.26538 0 0
8:49 pm 20:49 Cloudy 39 4 N/A N/A WNW 14 22 30 1016 10 16.0934 0.03 0.762
8:50 pm 20:50 Cloudy 39 4 N/A N/A WNW 14 22 29.96 1015 10 16.0934 0.03 0.762
8:57 pm 20:57 Cloudy 39 4 N/A N/A WNW 16 26 30 1016 10 16.0934 0 0
9:13 pm 21:13 Cloudy 39 4 N/A N/A WNW 15 24 30.03 1017 10 16.0934 0 0
9:53 pm 21:53 Cloudy 39 4 N/A N/A NW 17 28 30 1016 10 16.0934 0 0
10:53 pm 22:53 Cloudy 39 4 N/A N/A NW 14 22 30.02 1017 10 16.0934 0 0
11:53 pm 23:53 Cloudy with Light Rain 37 3 N/A N/A WNW 14 22 30.04 1017 10 16.0934 0 0.0254

Powered by AerisWeather